Powrót do katalogu

STARLINK-36587

AktywnyŁącznośćSSO
NORAD 67532·PAYLOAD·🇺🇸 United States

Wystrzelony Jan 22, 2026 z Vandenberg Space Force Base

Loading…

Następne Przeloty (najbliższe 24 godziny)

TLE

ŚwieżeSource: CelesTrak SupGP

Epoka: Sep 14, 2026, 21:23 UTC

1 67532C 26014A   26257.89145833 -.00023123  00000+0 -71801-3 0  2578
2 67532  97.2848 143.3726 0001813  89.4188 180.0619 15.33440834    11

Śledź STARLINK-36587 w czasie rzeczywistym z AllMySat

Download on the App Store